Location: La Pernelle
(49.6188°N, 1.2999°W)
Time: 15:06:39
(UTC+00:00)

Cosmos 2322 Rocket - Pass Details

Date: 12 June 2021
Orbit: 833 x 850 km, 71.0° (Epoch: 31 July)

Event Time Altitude Azimuth Distance (km) Brightness Sun altitude
Exits shadow 21:02:21 - 165° (SSE) 2,961 4.5 -6.6°
Reaches altitude 10° 21:03:52 10° 158° (SSE) 2,468 4.0 -6.8°
Maximum altitude 21:08:29 26° 103° (ESE) 1,602 3.2 -7.3°
Drops below altitude 10° 21:13:08 10° 48° (NE) 2,486 4.7 -7.8°
Sets 21:15:56 0° 37° (NE) 3,427 5.6 -8.1°
